Location: Santa Maria di Sala
(45.5070°N, 12.0300°E)
Time: 22:40:44
(UTC+01:00)

XW-2F - Visible Passes

Search period start: 27 February 2024 00:00
Search period end: 08 March 2024 00:00
Orbit: 336 x 339 km, 97.4° (Epoch: 27 February)

Date Brightness Start Highest point End Pass type
(mag) Time Alt. Az. Time Alt. Az. Time Alt. Az.
27 Feb ? 19:45:05 10° SW 19:46:45 15° W 19:48:26 10° NW visible
28 Feb ? 18:34:33 10° SE 18:37:06 39° ENE 18:39:41 10° N visible
29 Feb ? 18:54:49 10° SSE 18:57:30 88° ESE 19:00:14 10° NNW visible
01 Mar ? 19:14:58 10° S 19:17:31 40° W 19:20:05 10° NNW visible
02 Mar ? 19:35:01 10° SSW 19:37:06 20° W 19:39:12 10° NW visible
03 Mar ? 19:55:21 10° WSW 19:56:15 11° W 19:57:09 10° WNW visible
04 Mar ? 18:41:48 10° SSE 18:44:20 47° ENE 18:46:55 10° N visible
05 Mar ? 18:59:50 10° S 19:02:27 81° W 19:05:05 10° NNW visible
06 Mar ? 19:17:40 10° S 19:20:07 38° W 19:22:36 10° NNW visible
07 Mar ? 19:35:19 10° SSW 19:37:22 21° W 19:39:26 10° NW visible
